^^
Saratoga-Weather Station Historical Data
Daily Summary for February 15, 2021 Units:  English    Metric   Both
Daily Weekly Monthly Yearly Custom
  High: Low: Average:
Temperature: 86.4 °F 58.3 °F 72.1 °F
Dew Point: 66.6 °F 56.3 °F 60.4 °F
Humidity: 95% 41% 69%
Wind Speed: 4.9mph 0mph 0.9mph
Wind Gust: 8mph - -
Wind- - SSW
Pressure: 30 in 29.8 in -
Precipitation: 0 in    
Historical Graphs
 
 
Tabular Data for February 15, 2021
Time Temperature Dew Point Pressure Wind Wind Speed Wind Gust Humidity Rainfall Rate (Hourly) solar
00:03 65.3 °F 57.6 °F 30 in West 0.9 mph 1 mph 76% 0 in 0 W/m2
00:08 64.9 °F 57.2 °F 30 in Calm     76% 0 in 0 W/m2
00:13 64.8 °F 57.4 °F 30 in Calm     77% 0 in 0 W/m2
00:18 64.6 °F 57.2 °F 30 in Calm     77% 0 in 0 W/m2
00:23 64.4 °F 57 °F 30 in Calm     77% 0 in 0 W/m2
00:28 64.2 °F 57.2 °F 30 in Calm     78% 0 in 0 W/m2
00:33 64.2 °F 57.2 °F 30 in Calm     78% 0 in 0 W/m2
00:38 64 °F 57 °F 30 in Calm     78% 0 in 0 W/m2
00:43 64 °F 57.4 °F 30 in Calm     79% 0 in 0 W/m2
00:48 63.9 °F 57.2 °F 30 in Calm     79% 0 in 0 W/m2
00:53 63.7 °F 57.4 °F 30 in Calm     80% 0 in 0 W/m2
00:58 63.7 °F 57.4 °F 30 in Calm     80% 0 in 0 W/m2
01:03 63.3 °F 57.4 °F 30 in Calm     81% 0 in 0 W/m2
01:08 63.1 °F 57.2 °F 30 in Calm     81% 0 in 0 W/m2
01:13 63 °F 57 °F 30 in Calm     81% 0 in 0 W/m2
01:18 63 °F 57.4 °F 30 in Calm     82% 0 in 0 W/m2
01:23 62.8 °F 57.2 °F 30 in Calm     82% 0 in 0 W/m2
01:28 62.6 °F 57.4 °F 30 in Calm     83% 0 in 0 W/m2
01:33 62.4 °F 57.2 °F 30 in Calm     83% 0 in 0 W/m2
01:38 62.2 °F 57.4 °F 30 in Calm     84% 0 in 0 W/m2
01:43 62.2 °F 57.4 °F 30 in Calm     84% 0 in 0 W/m2
01:48 62.1 °F 57.2 °F 30 in Calm     84% 0 in 0 W/m2
01:53 61.9 °F 57.4 °F 30 in Calm     85% 0 in 0 W/m2
01:58 61.9 °F 57.4 °F 30 in Calm     85% 0 in 0 W/m2
02:03 61.7 °F 57.4 °F 30 in Calm     86% 0 in 0 W/m2
02:08 61.5 °F 57.4 °F 30 in Calm     86% 0 in 0 W/m2
02:13 61.5 °F 57.4 °F 30 in Calm     86% 0 in 0 W/m2
02:18 61.3 °F 57.2 °F 30 in Calm     86% 0 in 0 W/m2
02:23 61.3 °F 57.4 °F 30 in Calm     87% 0 in 0 W/m2
02:28 61.3 °F 57.4 °F 30 in Calm     87% 0 in 0 W/m2
02:33 61.3 °F 57.4 °F 30 in Calm     87% 0 in 0 W/m2
02:38 61.2 °F 57.2 °F 30 in Calm     87% 0 in 0 W/m2
02:43 61.2 °F 57.2 °F 30 in Calm     87% 0 in 0 W/m2
02:48 61 °F 57.4 °F 30 in Calm     88% 0 in 0 W/m2
02:53 61 °F 57.4 °F 30 in Calm     88% 0 in 0 W/m2
02:58 61 °F 57.4 °F 30 in Calm     88% 0 in 0 W/m2
03:03 60.8 °F 57.2 °F 30 in Calm     88% 0 in 0 W/m2
03:08 60.6 °F 57.4 °F 30 in Calm     89% 0 in 0 W/m2
03:13 60.6 °F 57.4 °F 30 in Calm     89% 0 in 0 W/m2
03:18 60.6 °F 57.4 °F 30 in Calm     89% 0 in 0 W/m2
03:23 60.6 °F 57.7 °F 30 in Calm     90% 0 in 0 W/m2
03:28 60.6 °F 57.7 °F 30 in Calm     90% 0 in 0 W/m2
03:33 60.8 °F 58.1 °F 30 in Calm   2 mph 91% 0 in 0 W/m2
03:38 61 °F 58.1 °F 30 in Calm   1 mph 90% 0 in 0 W/m2
03:43 61 °F 58.1 °F 30 in Calm   2 mph 90% 0 in 0 W/m2
03:48 61 °F 58.1 °F 30 in Calm     90% 0 in 0 W/m2
03:53 61 °F 58.1 °F 30 in Calm     90% 0 in 0 W/m2
03:58 61 °F 58.1 °F 30 in Calm     90% 0 in 0 W/m2
04:03 61 °F 58.1 °F 30 in Calm     90% 0 in 0 W/m2
04:08 60.8 °F 57.9 °F 30 in Calm     90% 0 in 0 W/m2
04:13 60.6 °F 57.7 °F 30 in Calm     90% 0 in 0 W/m2
04:18 60.6 °F 57.7 °F 30 in Calm     90% 0 in 0 W/m2
04:23 60.6 °F 57.7 °F 30 in Calm     90% 0 in 0 W/m2
04:28 60.4 °F 57.6 °F 30 in Calm     90% 0 in 0 W/m2
04:33 60.4 °F 57.6 °F 30 in Calm     90% 0 in 0 W/m2
04:38 60.3 °F 57.4 °F 30 in Calm     90% 0 in 0 W/m2
04:43 60.3 °F 57.4 °F 30 in Calm     90% 0 in 0 W/m2
04:48 60.1 °F 57.4 °F 30 in Calm     91% 0 in 0 W/m2
04:53 60.1 °F 57.4 °F 30 in Calm     91% 0 in 0 W/m2
04:58 60.1 °F 57.4 °F 30 in Calm     91% 0 in 0 W/m2
05:03 60.1 °F 57.4 °F 30 in Calm     91% 0 in 0 W/m2
05:08 59.9 °F 57.2 °F 30 in Calm     91% 0 in 0 W/m2
05:13 59.9 °F 57.2 °F 30 in Calm     91% 0 in 0 W/m2
05:18 59.7 °F 57 °F 30 in Calm     91% 0 in 0 W/m2
05:23 59.7 °F 57 °F 30 in Calm     91% 0 in 0 W/m2
05:28 59.5 °F 56.8 °F 30 in Calm     91% 0 in 0 W/m2
05:33 59.5 °F 56.8 °F 30 in Calm     91% 0 in 0 W/m2
05:38 59.4 °F 56.7 °F 30 in Calm     91% 0 in 0 W/m2
05:44 59.2 °F 56.8 °F 30 in Calm     92% 0 in 0 W/m2
05:49 59.2 °F 56.8 °F 30 in Calm     92% 0 in 0 W/m2
05:54 59 °F 56.7 °F 30 in Calm     92% 0 in 0 W/m2
05:59 58.8 °F 56.5 °F 30 in Calm     92% 0 in 0 W/m2
06:04 58.8 °F 56.5 °F 30 in Calm     92% 0 in 0 W/m2
06:09 58.6 °F 56.3 °F 30 in Calm     92% 0 in 0 W/m2
06:14 58.6 °F 56.7 °F 30 in Calm     93% 0 in 0 W/m2
06:19 58.6 °F 56.7 °F 30 in Calm     93% 0 in 0 W/m2
06:24 58.5 °F 56.5 °F 30 in Calm     93% 0 in 0 W/m2
06:29 58.5 °F 56.5 °F 30 in Calm     93% 0 in 5 W/m2
06:34 58.3 °F 56.3 °F 30 in Calm     93% 0 in 7 W/m2
06:39 58.3 °F 56.3 °F 30 in Calm     93% 0 in 9 W/m2
06:44 58.3 °F 56.3 °F 30 in Calm     93% 0 in 11 W/m2
06:49 58.3 °F 56.5 °F 30 in Calm     94% 0 in 12 W/m2
06:54 58.3 °F 56.5 °F 30 in Calm     94% 0 in 14 W/m2
06:59 58.3 °F 56.5 °F 30 in Calm     94% 0 in 16 W/m2
07:04 58.3 °F 56.5 °F 30 in Calm     94% 0 in 18 W/m2
07:09 58.3 °F 56.5 °F 30 in Calm     94% 0 in 19 W/m2
07:14 58.5 °F 56.7 °F 30 in Calm     94% 0 in 21 W/m2
07:19 58.5 °F 56.7 °F 30 in Calm     94% 0 in 23 W/m2
07:24 58.6 °F 56.8 °F 30 in Calm     94% 0 in 25 W/m2
07:29 58.8 °F 57 °F 30 in Calm     94% 0 in 26 W/m2
07:34 59 °F 57.2 °F 30 in Calm     94% 0 in 28 W/m2
07:39 59.2 °F 57.4 °F 30 in Calm     94% 0 in 30 W/m2
07:44 59.4 °F 57.6 °F 30 in Calm     94% 0 in 32 W/m2
07:49 59.5 °F 57.7 °F 30 in Calm     94% 0 in 33 W/m2
07:54 59.9 °F 58.1 °F 30 in Calm     94% 0 in 33 W/m2
07:59 60.3 °F 58.8 °F 30 in Calm     95% 0 in 35 W/m2
08:04 60.8 °F 59.4 °F 30 in Calm     95% 0 in 37 W/m2
08:09 61.3 °F 59.5 °F 30 in Calm     94% 0 in 39 W/m2
08:14 62.1 °F 60.1 °F 30 in Calm     93% 0 in 40 W/m2
08:19 63 °F 60.6 °F 30 in Calm     92% 0 in 42 W/m2
08:24 63.9 °F 60.6 °F 30 in North 1 mph 1 mph 89% 0 in 46 W/m2
08:29 64.8 °F 60.1 °F 30 in East 0.9 mph 2 mph 85% 0 in 47 W/m2
08:34 65.7 °F 60.4 °F 30 in East 2 mph 2 mph 83% 0 in 62 W/m2
08:39 66.4 °F 60.8 °F 30 in Calm   2 mph 82% 0 in 163 W/m2
08:44 66.6 °F 60.6 °F 30 in ESE 0.9 mph 2 mph 81% 0 in 248 W/m2
08:49 67.1 °F 60.1 °F 30 in Calm   1 mph 78% 0 in 274 W/m2
08:54 67.6 °F 60.6 °F 30 in Calm     78% 0 in 297 W/m2
08:59 67.8 °F 60.3 °F 30 in Calm   2 mph 77% 0 in 322 W/m2
09:04 68.2 °F 59.9 °F 30 in ENE 0.9 mph 1 mph 75% 0 in 327 W/m2
09:09 68.4 °F 59.7 °F 30 in ESE 2.9 mph 3 mph 74% 0 in 334 W/m2
09:14 68.5 °F 60.6 °F 30 in ESE 0.9 mph 1 mph 76% 0 in 352 W/m2
09:19 68.5 °F 60.3 °F 30 in NNW 2 mph 2 mph 75% 0 in 385 W/m2
09:24 68.4 °F 59.4 °F 30 in Calm   3 mph 73% 0 in 366 W/m2
09:29 68.4 °F 59.7 °F 30 in Calm     74% 0 in 376 W/m2
09:34 68.5 °F 59.9 °F 30 in East 2 mph 2 mph 74% 0 in 128 W/m2
09:39 68.7 °F 60.1 °F 30 in Calm   1 mph 74% 0 in 121 W/m2
09:44 69.3 °F 60.3 °F 30 in NE 2 mph 2 mph 73% 0 in 362 W/m2
09:49 69.6 °F 60.6 °F 30 in ENE 2 mph 2 mph 73% 0 in 425 W/m2
09:55 69.6 °F 60.3 °F 30 in Calm   1 mph 72% 0 in 397 W/m2
10:00 70.2 °F 60.6 °F 30 in NE 2 mph 2 mph 72% 0 in 459 W/m2
10:05 70.3 °F 60.8 °F 30 in Calm   2 mph 72% 0 in 494 W/m2
10:10 70.9 °F 61 °F 30 in Calm   1 mph 71% 0 in 499 W/m2
10:15 71.4 °F 61.2 °F 30 in Calm   2 mph 70% 0 in 510 W/m2
10:20 71.6 °F 60.8 °F 30 in ENE 0.9 mph 3 mph 69% 0 in 520 W/m2
10:25 72.1 °F 61.3 °F 30 in ENE 2 mph 3 mph 69% 0 in 504 W/m2
10:30 72.3 °F 61.2 °F 30 in Calm   3 mph 68% 0 in 538 W/m2
10:35 72.7 °F 61.9 °F 30 in NE 2 mph 2 mph 69% 0 in 534 W/m2
10:40 73 °F 61.9 °F 30 in East 0.9 mph 1 mph 68% 0 in 591 W/m2
10:45 73.6 °F 62.4 °F 30 in Calm   4 mph 68% 0 in 610 W/m2
10:50 73.9 °F 62.2 °F 30 in ESE 0.9 mph 3 mph 67% 0 in 578 W/m2
10:55 74.5 °F 61.9 °F 30 in SE 4 mph 4 mph 65% 0 in 568 W/m2
11:00 74.7 °F 62.1 °F 30 in ENE 0.9 mph 3 mph 65% 0 in 603 W/m2
11:05 74.8 °F 62.8 °F 30 in NE 2.9 mph 5 mph 66% 0 in 631 W/m2
11:10 75 °F 62.4 °F 30 in East 2 mph 4 mph 65% 0 in 647 W/m2
11:15 75.4 °F 62.4 °F 30 in East 0.9 mph 5 mph 64% 0 in 638 W/m2
11:20 75.6 °F 63 °F 30 in East 2.9 mph 4 mph 65% 0 in 673 W/m2
11:25 75.7 °F 62.8 °F 30 in Calm   3 mph 64% 0 in 686 W/m2
11:30 75.9 °F 62.8 °F 30 in Calm   3 mph 64% 0 in 689 W/m2
11:35 76.5 °F 63.3 °F 30 in NNW 2 mph 3 mph 64% 0 in 591 W/m2
11:40 76.8 °F 62.8 °F 30 in ENE 0.9 mph 3 mph 62% 0 in 735 W/m2
11:45 77.2 °F 63.7 °F 30 in Calm   1 mph 63% 0 in 594 W/m2
11:50 77.7 °F 64.9 °F 30 in ESE 2.9 mph 3 mph 65% 0 in 761 W/m2
11:55 78.3 °F 63.3 °F 30 in East 0.9 mph 3 mph 60% 0 in 731 W/m2
12:00 78.4 °F 63.3 °F 30 in ENE 4 mph 4 mph 60% 0 in 768 W/m2
12:05 78.4 °F 63.3 °F 30 in Calm   4 mph 60% 0 in 796 W/m2
12:10 79.2 °F 64 °F 30 in ESE 2 mph 2 mph 60% 0 in 754 W/m2
12:15 79.5 °F 63.9 °F 30 in East 0.9 mph 4 mph 59% 0 in 584 W/m2
12:20 79.3 °F 63.3 °F 30 in NNE 0.9 mph 2 mph 58% 0 in 640 W/m2
12:25 79.3 °F 64.2 °F 30 in Calm   1 mph 60% 0 in 707 W/m2
12:30 79.7 °F 63.1 °F 29.9 in Calm   4 mph 57% 0 in 740 W/m2
12:35 79.9 °F 63.3 °F 29.9 in Calm   3 mph 57% 0 in 714 W/m2
12:40 80.2 °F 63.1 °F 29.9 in South 0.9 mph 2 mph 56% 0 in 745 W/m2
12:45 80.4 °F 61.7 °F 29.9 in ESE 0.9 mph 3 mph 53% 0 in 773 W/m2
12:50 81.1 °F 64 °F 29.9 in ESE 0.9 mph 2 mph 56% 0 in 733 W/m2
12:55 81.9 °F 62.4 °F 29.9 in SE 0.9 mph 4 mph 52% 0 in 707 W/m2
13:00 81.9 °F 62.4 °F 29.9 in Calm   1 mph 52% 0 in 719 W/m2
13:05 81.7 °F 61.9 °F 29.9 in East 0.9 mph 3 mph 51% 0 in 661 W/m2
13:10 81.5 °F 61 °F 29.9 in WNW 2 mph 3 mph 50% 0 in 700 W/m2
13:15 81 °F 62.2 °F 29.9 in WSW 2 mph 3 mph 53% 0 in 802 W/m2
13:20 80.8 °F 62.1 °F 29.9 in SE 0.9 mph 1 mph 53% 0 in 761 W/m2
13:25 81.1 °F 61.9 °F 29.9 in East 2.9 mph 5 mph 52% 0 in 721 W/m2
13:30 81.1 °F 61.3 °F 29.9 in East 2 mph 3 mph 51% 0 in 701 W/m2
13:35 81.3 °F 61 °F 29.9 in NE 0.9 mph 2 mph 50% 0 in 652 W/m2
13:40 81.7 °F 60.6 °F 29.9 in NNW 2.9 mph 4 mph 49% 0 in 705 W/m2
13:45 81.5 °F 60.4 °F 29.9 in East 0.9 mph 1 mph 49% 0 in 747 W/m2
13:50 82 °F 62.6 °F 29.9 in East 2 mph 3 mph 52% 0 in 791 W/m2
13:55 82.4 °F 61.3 °F 29.9 in West 2 mph 3 mph 49% 0 in 812 W/m2
14:01 82.6 °F 62.1 °F 29.9 in Calm   2 mph 50% 0 in 795 W/m2
14:06 82.9 °F 61.2 °F 29.9 in SSW 0.9 mph 2 mph 48% 0 in 838 W/m2
14:11 83.5 °F 62.2 °F 29.9 in Calm   3 mph 49% 0 in 758 W/m2
14:16 83.5 °F 62.2 °F 29.9 in WSW 2 mph 5 mph 49% 0 in 752 W/m2
14:21 83.1 °F 60.8 °F 29.9 in WNW 2 mph 5 mph 47% 0 in 772 W/m2
14:26 82.9 °F 60.1 °F 29.9 in WSW 0.9 mph 4 mph 46% 0 in 770 W/m2
14:31 82.9 °F 60.1 °F 29.9 in Calm   5 mph 46% 0 in 731 W/m2
14:36 83.1 °F 62.1 °F 29.9 in WNW 0.9 mph 4 mph 49% 0 in 810 W/m2
14:41 82.9 °F 60.6 °F 29.9 in ENE 0.9 mph 4 mph 47% 0 in 745 W/m2
14:46 83.1 °F 61.3 °F 29.9 in NW 2 mph 7 mph 48% 0 in 700 W/m2
14:51 83.5 °F 61.7 °F 29.9 in East 0.9 mph 2 mph 48% 0 in 652 W/m2
14:56 83.8 °F 63.9 °F 29.9 in East 0.9 mph 7 mph 51% 0 in 854 W/m2
15:01 84.2 °F 60.6 °F 29.9 in NNW 0.9 mph 6 mph 45% 0 in 612 W/m2
15:06 83.8 °F 59.5 °F 29.9 in West 0.9 mph 4 mph 44% 0 in 812 W/m2
15:11 83.8 °F 59.5 °F 29.9 in Calm   2 mph 44% 0 in 875 W/m2
15:16 84.2 °F 60.6 °F 29.9 in Calm   3 mph 45% 0 in 759 W/m2
15:21 84.4 °F 60.8 °F 29.9 in West 4 mph 4 mph 45% 0 in 728 W/m2
15:26 84.4 °F 60.8 °F 29.9 in WSW 2.9 mph 6 mph 45% 0 in 824 W/m2
15:31 84.4 °F 60.8 °F 29.9 in WNW 2 mph 4 mph 45% 0 in 647 W/m2
15:36 84 °F 59.7 °F 29.9 in NW 2.9 mph 5 mph 44% 0 in 680 W/m2
15:41 84 °F 60.4 °F 29.9 in West 0.9 mph 7 mph 45% 0 in 515 W/m2
15:46 84 °F 61.7 °F 29.9 in WSW 2 mph 2 mph 47% 0 in 663 W/m2
15:51 84.4 °F 62.6 °F 29.9 in WNW 0.9 mph 7 mph 48% 0 in 663 W/m2
15:56 84.7 °F 60.4 °F 29.9 in NW 4 mph 6 mph 44% 0 in 744 W/m2
16:01 84.7 °F 59.2 °F 29.9 in NW 2 mph 4 mph 42% 0 in 547 W/m2
16:06 84.7 °F 59.7 °F 29.9 in SW 2 mph 5 mph 43% 0 in 619 W/m2
16:11 84.7 °F 59.2 °F 29.9 in West 0.9 mph 4 mph 42% 0 in 749 W/m2
16:16 84.9 °F 61.2 °F 29.9 in West 2 mph 7 mph 45% 0 in 749 W/m2
16:21 85.1 °F 61.3 °F 29.9 in West 2 mph 4 mph 45% 0 in 705 W/m2
16:26 85.5 °F 60.4 °F 29.9 in WNW 2 mph 4 mph 43% 0 in 707 W/m2
16:31 85.5 °F 59.7 °F 29.9 in North 4.9 mph 6 mph 42% 0 in 705 W/m2
16:36 85.8 °F 59.4 °F 29.9 in WNW 4 mph 7 mph 41% 0 in 680 W/m2
16:41 85.5 °F 59.7 °F 29.9 in West 2.9 mph 6 mph 42% 0 in 664 W/m2
16:46 85.5 °F 59.7 °F 29.9 in West 2.9 mph 4 mph 42% 0 in 584 W/m2
16:51 85.5 °F 59.7 °F 29.9 in West 2 mph 4 mph 42% 0 in 633 W/m2
16:56 85.5 °F 60.4 °F 29.9 in NNW 4 mph 5 mph 43% 0 in 608 W/m2
17:01 85.3 °F 59.5 °F 29.9 in WSW 2.9 mph 7 mph 42% 0 in 598 W/m2
17:06 85.5 °F 60.4 °F 29.9 in SSW 2 mph 2 mph 43% 0 in 582 W/m2
17:11 85.8 °F 60.1 °F 29.9 in West 2 mph 3 mph 42% 0 in 570 W/m2
17:16 86.2 °F 59.7 °F 29.9 in WSW 0.9 mph 3 mph 41% 0 in 566 W/m2
17:21 86.4 °F 61.9 °F 29.9 in WNW 0.9 mph 3 mph 44% 0 in 550 W/m2
17:26 86.4 °F 59.9 °F 29.9 in WSW 2.9 mph 6 mph 41% 0 in 533 W/m2
17:31 86.4 °F 61.2 °F 29.9 in West 2.9 mph 4 mph 43% 0 in 462 W/m2
17:36 86.2 °F 61 °F 29.9 in WSW 2 mph 3 mph 43% 0 in 494 W/m2
17:41 86.2 °F 60.4 °F 29.9 in WSW 2.9 mph 4 mph 42% 0 in 482 W/m2
17:46 86.2 °F 60.4 °F 29.9 in West 2 mph 6 mph 42% 0 in 464 W/m2
17:51 86.2 °F 60.4 °F 29.9 in WSW 2 mph 8 mph 42% 0 in 455 W/m2
17:56 86 °F 60.3 °F 29.9 in WNW 4 mph 4 mph 42% 0 in 443 W/m2
18:01 85.6 °F 60.6 °F 29.9 in SW 2.9 mph 8 mph 43% 0 in 427 W/m2
18:06 85.5 °F 61.7 °F 29.8 in WSW 2.9 mph 6 mph 45% 0 in 406 W/m2
18:11 85.3 °F 61 °F 29.8 in WSW 2.9 mph 7 mph 44% 0 in 392 W/m2
18:16 85.1 °F 61.3 °F 29.8 in West 2.9 mph 4 mph 45% 0 in 387 W/m2
18:21 85.3 °F 62.8 °F 29.8 in West 2.9 mph 7 mph 47% 0 in 367 W/m2
18:26 85.1 °F 62.1 °F 29.8 in West 0.9 mph 4 mph 46% 0 in 357 W/m2
18:31 84.9 °F 61.9 °F 29.8 in West 2 mph 3 mph 46% 0 in 332 W/m2
18:36 84.9 °F 62.4 °F 29.8 in WNW 2.9 mph 6 mph 47% 0 in 325 W/m2
18:41 84.7 °F 62.2 °F 29.8 in West 2.9 mph 4 mph 47% 0 in 308 W/m2
18:46 84.6 °F 62.8 °F 29.8 in WSW 2.9 mph 5 mph 48% 0 in 285 W/m2
18:51 84.2 °F 63 °F 29.8 in WSW 2 mph 4 mph 49% 0 in 248 W/m2
18:56 83.8 °F 63.1 °F 29.8 in WSW 2 mph 5 mph 50% 0 in 229 W/m2
19:02 83.5 °F 63 °F 29.8 in WSW 2.9 mph 3 mph 50% 0 in 183 W/m2
19:07 83.1 °F 62.6 °F 29.8 in WSW 2.9 mph 4 mph 50% 0 in 220 W/m2
19:12 82.9 °F 63 °F 29.8 in West 2.9 mph 4 mph 51% 0 in 206 W/m2
19:17 82.9 °F 62.4 °F 29.8 in West 0.9 mph 2 mph 50% 0 in 183 W/m2
19:22 83.3 °F 63.9 °F 29.8 in WSW 0.9 mph 4 mph 52% 0 in 151 W/m2
19:27 83.5 °F 65.1 °F 29.8 in Calm   1 mph 54% 0 in 137 W/m2
19:32 83.3 °F 65.5 °F 29.8 in Calm     55% 0 in 120 W/m2
19:37 83.5 °F 66.6 °F 29.8 in Calm     57% 0 in 109 W/m2
19:42 83.5 °F 66.6 °F 29.8 in WSW 0.9 mph 2 mph 57% 0 in 100 W/m2
19:47 82.9 °F 66.2 °F 29.8 in Calm   1 mph 57% 0 in 93 W/m2
19:52 82.9 °F 66.2 °F 29.8 in WSW 0.9 mph 2 mph 57% 0 in 90 W/m2
19:57 82.8 °F 65.5 °F 29.8 in WSW 0.9 mph 2 mph 56% 0 in 81 W/m2
20:02 82.4 °F 64.6 °F 29.8 in SW 0.9 mph 1 mph 55% 0 in 65 W/m2
20:07 82 °F 64.8 °F 29.8 in SW 0.9 mph 1 mph 56% 0 in 54 W/m2
20:12 81.3 °F 64.6 °F 29.8 in Calm   1 mph 57% 0 in 33 W/m2
20:17 80.4 °F 64.2 °F 29.8 in SW 0.9 mph 2 mph 58% 0 in 26 W/m2
20:22 79.5 °F 63.9 °F 29.8 in SW 0.9 mph 2 mph 59% 0 in 25 W/m2
20:27 78.6 °F 64 °F 29.8 in SW 0.9 mph 2 mph 61% 0 in 21 W/m2
20:32 77.7 °F 63.7 °F 29.8 in SW 0.9 mph 2 mph 62% 0 in 16 W/m2
20:37 77 °F 63.5 °F 29.8 in SW 0.9 mph 2 mph 63% 0 in 14 W/m2
20:42 76.5 °F 63.3 °F 29.8 in SW 0.9 mph 2 mph 64% 0 in 9 W/m2
20:47 75.9 °F 63.3 °F 29.8 in Calm     65% 0 in 7 W/m2
20:52 75.7 °F 63.5 °F 29.8 in Calm   2 mph 66% 0 in 0 W/m2
20:57 75.2 °F 63.1 °F 29.8 in Calm     66% 0 in 0 W/m2
21:02 74.8 °F 63.1 °F 29.8 in Calm     67% 0 in 0 W/m2
21:07 74.5 °F 63.1 °F 29.8 in Calm     68% 0 in 0 W/m2
21:12 74.1 °F 63 °F 29.8 in Calm     68% 0 in 0 W/m2
21:17 73.8 °F 63 °F 29.8 in Calm     69% 0 in 0 W/m2
21:22 73.6 °F 63.1 °F 29.8 in Calm     70% 0 in 0 W/m2
21:27 73.2 °F 63.3 °F 29.8 in SW 2 mph 2 mph 71% 0 in 0 W/m2
21:32 72.9 °F 62.4 °F 29.8 in Calm   1 mph 70% 0 in 0 W/m2
21:37 72.9 °F 63.3 °F 29.8 in Calm   1 mph 72% 0 in 0 W/m2
21:42 72.7 °F 62.8 °F 29.8 in Calm     71% 0 in 0 W/m2
21:47 72.5 °F 62.6 °F 29.8 in Calm   1 mph 71% 0 in 0 W/m2
21:52 72.3 °F 62.8 °F 29.8 in WNW 0.9 mph 2 mph 72% 0 in 0 W/m2
21:57 72.1 °F 62.6 °F 29.8 in Calm   1 mph 72% 0 in 0 W/m2
22:02 72.1 °F 62.2 °F 29.8 in Calm   1 mph 71% 0 in 0 W/m2
22:07 72 °F 62.4 °F 29.8 in Calm     72% 0 in 0 W/m2
22:12 72 °F 62.4 °F 29.8 in Calm     72% 0 in 0 W/m2
22:17 71.8 °F 62.2 °F 29.8 in Calm     72% 0 in 0 W/m2
22:22 71.8 °F 62.6 °F 29.8 in Calm   1 mph 73% 0 in 0 W/m2
22:27 71.8 °F 62.6 °F 29.8 in Calm     73% 0 in 0 W/m2
22:32 71.8 °F 63 °F 29.8 in WNW 0.9 mph 1 mph 74% 0 in 0 W/m2
22:37 71.8 °F 62.2 °F 29.8 in WSW 2 mph 8 mph 72% 0 in 0 W/m2
22:42 72.7 °F 62.2 °F 29.8 in WSW 0.9 mph 3 mph 70% 0 in 0 W/m2
22:47 73.8 °F 62.6 °F 29.8 in WNW 2.9 mph 6 mph 68% 0 in 0 W/m2
22:52 74.5 °F 62.8 °F 29.8 in NW 4 mph 4 mph 67% 0 in 0 W/m2
22:57 74.8 °F 63.1 °F 29.8 in West 2 mph 3 mph 67% 0 in 0 W/m2
23:02 74.8 °F 63.1 °F 29.8 in NW 0.9 mph 4 mph 67% 0 in 0 W/m2
23:07 74.1 °F 63.3 °F 29.8 in NW 2 mph 3 mph 69% 0 in 0 W/m2
23:12 73.4 °F 63 °F 29.8 in NNW 2 mph 3 mph 70% 0 in 0 W/m2
23:17 72.9 °F 63.3 °F 29.8 in WNW 2 mph 2 mph 72% 0 in 0 W/m2
23:22 72.1 °F 63 °F 29.8 in WNW 2.9 mph 3 mph 73% 0 in 0 W/m2
23:27 71.8 °F 63 °F 29.8 in WNW 0.9 mph 2 mph 74% 0 in 0 W/m2
23:32 71.4 °F 62.8 °F 29.8 in WNW 0.9 mph 2 mph 74% 0 in 0 W/m2
23:37 71.2 °F 63 °F 29.8 in WNW 0.9 mph 2 mph 75% 0 in 0 W/m2
23:42 71.1 °F 63.1 °F 29.8 in WNW 0.9 mph 2 mph 76% 0 in 0 W/m2
23:47 70.9 °F 63 °F 29.8 in WNW 0.9 mph 2 mph 76% 0 in 0 W/m2
23:52 70.5 °F 63 °F 29.8 in West 0.9 mph 2 mph 77% 0 in 0 W/m2
23:57 70.3 °F 62.8 °F 29.8 in West 2 mph 8 mph 77% 0 in 0 W/m2
Juneau County Weather
Compliments of Weather Underground - 4 mb